Concord, NH

6:57 AM EST on November 22, 2017 (GMT -0500)
Concord Municipal

Weather History for KCON - December, 2013

Change the Weather History Date:

Sunday, December 29, 2013

  Actual Average Record
Temperature  
Mean Temperature 29 °F 22 °F  
Max Temperature 35 °F 32 °F 65 °F (1984)
Min Temperature 22 °F 13 °F -21 °F (1933)
Degree Days  
Heating Degree Days 36 43  
Month to date heating degree days 1180 1101  
Since 1 July heating degree days 2697 2661  
Cooling Degree Days 0 0  
Month to date cooling degree days 0 0  
Year to date cooling degree days 537 452  
Moisture  
Dew Point 29 °F    
Average Humidity 91    
Maximum Humidity 100    
Minimum Humidity 82    
Precipitation  
Precipitation 1.03 in 0.09 in 1.25 in (1966)
Month to date precipitation 3.39 3.01  
Year to date precipitation 40.79 40.42  
Snow  
Snow 0.00 in 0.50 in 7.10 in (1956)
Month to date snowfall 18.9 13.4  
Since 1 July snowfall 19.1 16.0  
Snow Depth 5.00 in    
Sea Level Pressure  
Sea Level Pressure 29.75 in    
Wind  
Wind Speed 2 mph (NNW)    
Max Wind Speed 13 mph    
Max Gust Speed 17 mph    
Visibility 3 miles    
Events Rain , Snow    
T = Trace of Precipitation, MM = Missing Value Source: NWS Daily Summary

Daily Weather History Graph

Daily Weather History Graph

Search for Another Location

Airport or City:

Trip Planner

Search our weather history database for the weather conditions in past years. The results will help you decide how hot, cold, wet, or windy it might be!

Date:

Astronomy

Dec. 29, 2013 Rise Set
Actual Time 7:17 AM EST 4:18 PM EST
Civil Twilight 6:45 AM EST 4:51 PM EST
Nautical Twilight 6:09 AM EST 5:27 PM EST
Astronomical Twilight 5:34 AM EST 6:01 PM EST
Moon 3:55 AM EST (12/29) 1:56 PM EST (12/29)
Length of Visible Light 10h 06m
Length of Day
9h 01m
Waning Crescent, 11% of the Moon is Illuminated
Dec 29
Waning Crescent
Jan 1
New
Jan 7
First Quarter
Jan 15
Full
Jan 24
Last Quarter

Hourly Weather History & Observations

Time (EST) Temp. Windchill Dew Point Humidity Pressure Visibility Wind Dir Wind Speed Gust Speed Precip Events Conditions
12:51 AM 24.1 °F 18.2 °F 23.0 °F 96% 30.02 in 5.0 mi SSE 4.6 mph - N/A   Clear
1:51 AM 23.0 °F - 21.9 °F 96% 30.00 in 5.0 mi Calm Calm - N/A   Clear
2:51 AM 24.1 °F - 24.1 °F 100% 30.01 in 5.0 mi Calm Calm - N/A   Clear
3:51 AM 24.1 °F 19.7 °F 21.9 °F 91% 30.01 in 4.0 mi East 3.5 mph - N/A   Clear
4:51 AM 23.0 °F - 23.0 °F 100% 30.01 in 5.0 mi Calm Calm - N/A   Clear
5:51 AM 23.0 °F - 21.0 °F 92% 30.00 in 5.0 mi Calm Calm - N/A   Clear
6:51 AM 24.1 °F - 23.0 °F 96% 30.00 in 5.0 mi Calm Calm - N/A   Clear
7:51 AM 24.1 °F - 23.0 °F 96% 29.99 in 4.0 mi Calm Calm - N/A   Clear
8:51 AM 27.0 °F - 26.1 °F 96% 30.01 in 4.0 mi Calm Calm - N/A   Clear
9:51 AM 28.9 °F - 28.0 °F 96% 29.98 in 4.0 mi Calm Calm - N/A   Clear
10:51 AM 30.9 °F - 28.9 °F 92% 29.94 in 5.0 mi Calm Calm - N/A   Clear
11:51 AM 33.1 °F 30.0 °F 28.0 °F 82% 29.92 in 6.0 mi WNW 3.5 mph - N/A   Haze
12:51 PM 33.1 °F - 28.0 °F 82% 29.87 in 7.0 mi Calm Calm - N/A   Mostly Cloudy
1:51 PM 34.0 °F - 28.0 °F 79% 29.84 in 7.0 mi Calm Calm - N/A   Overcast
2:51 PM 34.0 °F - 28.0 °F 79% 29.83 in 7.0 mi Calm Calm - N/A   Overcast
3:46 PM 33.8 °F 30.8 °F 32.0 °F 93% 29.76 in 2.0 mi East 3.5 mph - 0.03 in Rain Light Rain
3:51 PM 33.1 °F - 32.0 °F 96% 29.78 in 1.8 mi Calm Calm - 0.04 in Rain Light Rain
4:12 PM 33.1 °F - 32.0 °F 96% 29.76 in 2.5 mi Calm Calm - 0.02 in Rain Light Rain
4:23 PM 33.1 °F 30.0 °F 32.0 °F 96% 29.74 in 1.8 mi North 3.5 mph - 0.04 in Rain Rain
4:51 PM 33.1 °F 30.0 °F 32.0 °F 96% 29.73 in 2.0 mi North 3.5 mph - 0.12 in Rain Rain
4:56 PM 33.1 °F 28.7 °F 32.0 °F 96% 29.70 in 1.8 mi North 4.6 mph - 0.02 in Rain Rain
5:10 PM 33.1 °F 27.7 °F 33.1 °F 100% 29.69 in 2.5 mi North 5.8 mph - 0.07 in Rain Rain
5:32 PM 33.1 °F 24.9 °F 33.1 °F 100% 29.66 in 3.0 mi NNE 10.4 mph - 0.14 in Rain Light Rain
5:51 PM 33.1 °F 26.1 °F 33.1 °F 100% 29.67 in 3.0 mi North 8.1 mph - 0.16 in Rain Rain
6:06 PM 34.0 °F 28.8 °F 33.1 °F 96% 29.65 in 4.0 mi North 5.8 mph - 0.03 in Rain Rain
6:51 PM 33.1 °F 28.7 °F 32.0 °F 96% 29.64 in 2.5 mi NNW 4.6 mph - 0.19 in Rain Rain
7:01 PM 32.0 °F 28.7 °F 32.0 °F 100% 29.63 in 2.0 mi NW 3.5 mph - 0.04 in Snow Light Snow
7:11 PM 32.0 °F 27.5 °F 32.0 °F 100% 29.64 in 1.5 mi WNW 4.6 mph - 0.08 in Snow Light Snow
7:23 PM 32.0 °F 27.5 °F 32.0 °F 100% 29.64 in 1.2 mi WNW 4.6 mph - 0.12 in Snow Light Snow
7:51 PM 32.0 °F 28.7 °F 32.0 °F 100% 29.62 in 0.8 mi NNW 3.5 mph - 0.20 in Snow Light Snow
8:03 PM 32.0 °F 27.5 °F 32.0 °F 100% 29.59 in 1.0 mi NNW 4.6 mph - 0.05 in Snow Light Snow
8:11 PM 32.0 °F 25.6 °F 30.9 °F 96% 29.57 in 1.5 mi North 6.9 mph - 0.07 in Snow Light Snow
8:22 PM 32.0 °F 25.6 °F 32.0 °F 100% 29.56 in 3.0 mi North 6.9 mph - 0.09 in   Overcast
8:37 PM 32.0 °F 25.6 °F 32.0 °F 100% 29.55 in 2.5 mi NNW 6.9 mph - 0.11 in   Overcast
8:47 PM 32.0 °F 24.8 °F 32.0 °F 100% 29.52 in 3.0 mi North 8.1 mph - 0.12 in   Overcast
8:51 PM 32.0 °F 24.8 °F 32.0 °F 100% 29.54 in 3.0 mi North 8.1 mph - 0.12 in   Overcast
9:41 PM 32.0 °F 23.0 °F 32.0 °F 100% 29.55 in 1.8 mi NNW 11.5 mph - 0.05 in Snow Light Snow
9:51 PM 32.0 °F 24.8 °F 32.0 °F 100% 29.56 in 1.0 mi NNW 8.1 mph - 0.07 in Snow Light Snow
10:08 PM 32.0 °F 25.6 °F 32.0 °F 100% 29.53 in 1.5 mi NNW 6.9 mph - 0.06 in Snow Light Snow
10:15 PM 32.0 °F 25.6 °F 32.0 °F 100% 29.53 in 1.8 mi NNW 6.9 mph - 0.07 in Snow Light Snow
10:23 PM 32.0 °F 25.6 °F 32.0 °F 100% 29.53 in 2.0 mi NNW 6.9 mph - 0.09 in Snow Light Snow
10:32 PM 32.0 °F 25.6 °F 32.0 °F 100% 29.53 in 1.5 mi NNW 6.9 mph - 0.10 in Snow Light Snow
10:51 PM 32.0 °F 25.6 °F 32.0 °F 100% 29.55 in 1.8 mi North 6.9 mph - 0.12 in Snow Light Snow
10:57 PM 32.0 °F 25.6 °F 32.0 °F 100% 29.55 in 3.0 mi NW 6.9 mph - 0.00 in Snow Light Snow
11:35 PM 32.0 °F 27.5 °F 32.0 °F 100% 29.55 in 8.0 mi NW 4.6 mph - 0.01 in   Overcast
11:51 PM 32.0 °F 28.7 °F 32.0 °F 100% 29.55 in 9.0 mi North 3.5 mph - 0.01 in   Overcast